Tracking 20041 objects as of 22-Nov-2019
Live streaming from Space Station
objects crossing your sky now

ANIK E2

Track ANIK E2 now!
ANIK E2 is classified as:


NORAD ID: 21222
Int'l Code: 1991-026A
Perigee: 36,081.2 km
Apogee: 36,153.6 km
Inclination: 12.2 °
Period: 1,452.7 minutes
Semi major axis: 42488 km
RCS: 12.1056 m2 (large)
Launch date: April 4, 1991
Source: Canada (CA)
Launch site: FRENCH GUIANA (FRGUI)

Inclined orbit; Anik is Inuit for "Little Brother"; 24 C-band, 16 Ku-band transponders.
aabbcc
Your satellite tracking list
Your tracking list is empty




NASA's NSSDC Master Catalog

Two Line Element Set (TLE):
1 21222U 91026A   19325.71497847 -.00000159  00000-0  00000+0 0  9999
2 21222  12.1719  29.3440 0008519 311.0931  84.3351  0.99128376 93321
Source of the keplerian elements: AFSPC